Temp
5 4 4 4 4 3 3 4 4 5 4 4 4 4 5 5 6 7 6 8 8 10 10 9 10 11 11 13 15 16 16 17 20 21 22 22 22 21 21 22 22 23 22 19 18
4 4 4 4 4 4 3 4 3 4 4 4 4 4 4 5 5 6 8 7 9 9 9 10 10 11 12 13 14 16 17 19 22 23 22 22 20 22 20 21 22 22 20 18 17
4 3 4 4 4 3 3 3 3 3 4 3 3 3 4 5 6 8 8 8 8 9 9 11 11 11 13 14 15 16 18 20 21 20 20 21 20 21 21 22 22 22 21 19 17
3 3 3 3 3 3 3 3 3 3 3 2 3 4 3 4 8 11 8 9 9 8 9 10 12 12 14 14 15 16 17 19 20 18 17 19 20 21 20 22 21 21 19 19 18
3 4 3 3 3 3 2 3 3 3 3 3 3 3 4 5 7 7 9 9 8 8 9 10 12 12 14 15 16 15 18 18 18 16 16 18 20 20 20 20 19 18 17 18 19
3 3 3 3 3 3 3 3 3 3 3 3 3 3 4 6 7 7 7 7 8 8 10 11 12 13 14 15 16 15 17 17 17 16 16 17 19 19 19 19 19 18 18 18 19
3 3 3 3 3 3 3 3 3 3 3 3 4 3 4 5 7 6 7 6 7 8 10 11 12 13 14 13 15 15 16 16 17 16 17 16 17 18 18 19 19 19 19 18 19
2 2 3 3 3 3 3 3 3 3 3 3 4 3 4 5 6 5 6 7 8 8 10 11 12 13 13 14 14 14 15 14 16 16 16 16 17 19 18 18 19 19 19 19 19
3 3 3 3 3 2 2 3 3 3 3 3 2 3 6 6 5 6 6 7 8 9 10 10 10 13 13 14 13 14 14 15 16 16 16 15 17 19 17 17 18 19 19 19 19
3 3 3 3 3 3 3 3 3 3 3 2 3 4 5 6 6 6 6 7 8 9 8 8 10 12 13 14 13 14 14 16 16 15 16 16 16 19 17 17 17 18 19 19 19
3 2 2 3 3 3 3 2 3 3 3 5 5 5 5 7 6 6 6 8 8 8 9 8 10 11 13 15 16 17 15 16 17 15 15 15 17 17 18 17 17 18 18 18 18
3 3 3 2 2 3 2 3 1 2 5 4 3 3 3 4 6 6 7 7 9 9 12 8 8 14 15 16 16 15 15 15 15 15 14 16 16 17 17 17 17 18 18 18 18
3 3 3 3 2 2 1 2 2 2 2 3 2 3 5 5 6 6 6 6 10 10 11 10 10 14 14 14 14 15 15 15 14 13 14 14 15 15 17 15 15 14 14 15 15
4 4 5 4 3 2 3 3 3 3 4 4 4 5 6 6 6 6 6 5 7 10 11 10 11 13 13 13 15 14 15 14 13 13 14 15 17 17 15 14 14 14 14 14 14
4 5 5 5 5 3 4 4 3 2 7 4 5 6 7 9 7 6 6 5 7 7 7 8 9 12 13 14 15 14 14 13 13 13 13 14 14 17 16 14 14 14 14 13 13
5 5 4 4 4 4 3 3 2 5 7 6 7 8 8 9 7 6 6 6 5 7 7 7 7 10 12 11 14 13 12 12 13 13 11 14 15 17 15 16 15 14 14 13 13
6 5 4 3 4 3 3 2 6 8 5 7 8 8 8 8 7 8 7 6 5 6 6 6 5 7 8 10 12 13 12 11 11 10 13 12 12 17 17 17 16 15 14 14 13
7 6 5 4 3 3 3 6 8 6 9 9 10 9 7 8 7 8 8 8 7 8 7 8 7 5 5 8 9 11 13 12 12 13 14 10 12 16 16 15 14 14 13 13 13
7 7 6 5 4 4 4 7 7 6 10 10 11 10 10 10 8 9 11 9 9 11 9 9 7 5 5 6 10 8 9 12 12 12 13 14 14 13 14 14 13 14 13 13 13
6 4 5 6 5 4 8 6 7 9 10 11 11 11 11 11 11 12 12 11 11 11 11 11 8 8 7 6 6 7 11 10 10 11 13 14 15 16 13 13 14 14 13 13 12
6 6 7 7 6 7 6 5 9 9 9 11 11 11 12 11 12 12 12 11 11 11 12 12 11 8 9 8 8 7 7 9 11 11 13 15 16 17 14 14 14 14 13 12 11
5 8 7 7 8 10 9 9 7 10 9 11 11 11 12 11 11 12 12 12 11 12 12 11 11 8 9 9 10 11 12 12 12 11 11 11 14 15 16 15 13 13 13 12 10
4 6 7 8 10 10 9 10 10 10 10 11 11 11 11 11 11 11 11 10 10 12 12 12 10 7 8 9 9 9 11 11 11 10 10 12 14 15 14 14 14 13 12 11 10
4 6 8 8 8 11 11 11 10 9 10 10 11 11 11 11 11 10 10 10 9 10 9 11 11 9 11 10 11 8 10 11 10 9 12 13 14 13 14 14 14 13 12 11 9
4 5 3 8 9 9 9 10 10 10 9 10 10 11 11 11 11 11 11 9 9 8 10 11 7 7 10 10 9 9 10 10 8 10 11 14 14 14 15 14 14 12 11 10 8
2 2 3 6 5 8 7 10 10 10 10 10 10 11 11 11 12 11 11 11 10 10 10 10 7 7 7 9 9 8 9 10 9 10 10 12 12 14 14 14 13 12 10 9 7
0 1 1 6 7 8 10 9 9 9 9 9 10 11 11 11 11 11 12 12 12 10 10 10 7 6 9 9 8 8 9 10 10 11 11 10 12 14 12 12 11 10 9 7 6
Height
1483 1480 1476 1473 1470 1468 1465 1462 1462 1461 1461 1462 1464 1464 1464 1464 1465 1466 1468 1471 1478 1479 1480 1486 1489 1493 1497 1499 1500 1501 1500 1498 1490 1487 1490 1495 1498 1501 1504 1504 1506 1507 1508 1511 1512
1479 1474 1471 1468 1465 1463 1461 1458 1457 1457 1457 1458 1459 1461 1461 1461 1462 1460 1463 1468 1474 1478 1480 1483 1486 1491 1495 1495 1498 1497 1490 1485 1483 1484 1488 1494 1500 1498 1505 1504 1503 1507 1509 1510 1511
1475 1471 1467 1463 1460 1459 1457 1455 1454 1454 1453 1455 1455 1457 1458 1459 1459 1449 1459 1464 1469 1475 1478 1483 1487 1490 1493 1492 1493 1492 1485 1485 1483 1487 1489 1493 1498 1498 1501 1500 1502 1504 1507 1511 1511
1471 1467 1462 1458 1455 1454 1453 1453 1452 1452 1452 1452 1453 1453 1455 1460 1456 1451 1453 1461 1465 1472 1477 1480 1484 1488 1488 1487 1489 1489 1487 1486 1486 1492 1495 1496 1496 1497 1500 1500 1501 1504 1508 1510 1511
1466 1461 1457 1454 1451 1450 1450 1450 1450 1450 1451 1451 1452 1452 1456 1458 1453 1451 1451 1457 1462 1469 1474 1478 1480 1484 1482 1484 1487 1489 1484 1489 1491 1495 1496 1498 1495 1496 1497 1500 1504 1505 1507 1508 1510
1461 1456 1451 1449 1447 1447 1447 1449 1449 1449 1450 1450 1450 1453 1455 1455 1452 1451 1452 1455 1460 1466 1472 1475 1477 1482 1482 1482 1484 1488 1488 1490 1492 1496 1498 1498 1497 1498 1498 1499 1502 1504 1505 1506 1507
1458 1451 1447 1444 1444 1444 1445 1447 1447 1447 1448 1448 1449 1449 1452 1452 1450 1448 1450 1454 1457 1463 1470 1474 1479 1481 1482 1486 1485 1489 1488 1490 1491 1494 1496 1500 1497 1493 1497 1498 1499 1500 1501 1503 1505
1454 1447 1442 1441 1441 1442 1443 1445 1446 1447 1447 1447 1448 1450 1447 1446 1448 1449 1448 1451 1455 1462 1470 1475 1479 1481 1482 1485 1488 1488 1488 1492 1488 1492 1495 1499 1491 1489 1493 1496 1496 1496 1498 1499 1501
1451 1444 1441 1439 1440 1441 1442 1444 1445 1446 1447 1448 1451 1452 1447 1443 1444 1446 1449 1451 1455 1460 1469 1474 1477 1478 1481 1481 1486 1483 1485 1485 1485 1488 1492 1495 1489 1487 1491 1494 1493 1494 1495 1496 1497
1452 1445 1443 1442 1443 1443 1443 1444 1444 1445 1446 1449 1451 1453 1444 1442 1443 1445 1449 1450 1451 1460 1469 1474 1477 1475 1477 1475 1476 1475 1482 1474 1479 1486 1488 1488 1490 1485 1490 1491 1492 1493 1493 1493 1494
1457 1451 1449 1448 1447 1446 1445 1446 1449 1449 1448 1446 1447 1446 1443 1442 1444 1446 1449 1450 1456 1462 1463 1470 1471 1467 1463 1464 1465 1466 1475 1472 1474 1483 1486 1486 1485 1484 1487 1489 1489 1488 1489 1490 1491
1461 1457 1455 1451 1450 1447 1447 1447 1448 1450 1447 1448 1447 1444 1443 1444 1445 1447 1449 1448 1453 1459 1459 1470 1470 1463 1463 1466 1467 1471 1471 1476 1479 1482 1488 1481 1482 1482 1485 1484 1485 1485 1485 1486 1488
1462 1459 1456 1454 1451 1450 1447 1447 1446 1447 1447 1451 1448 1445 1444 1446 1448 1449 1452 1452 1453 1458 1459 1463 1467 1463 1465 1467 1471 1472 1474 1476 1483 1487 1486 1485 1481 1478 1477 1483 1483 1485 1486 1486 1486
1465 1460 1458 1455 1456 1451 1448 1447 1447 1447 1447 1452 1447 1444 1444 1443 1447 1450 1452 1454 1456 1456 1461 1467 1465 1463 1467 1471 1469 1473 1472 1477 1486 1486 1483 1481 1471 1464 1474 1480 1482 1482 1482 1484 1485
1467 1463 1460 1457 1455 1453 1451 1448 1448 1449 1425 1451 1445 1443 1438 1440 1446 1451 1453 1455 1459 1458 1466 1469 1466 1465 1465 1466 1467 1472 1477 1482 1486 1486 1484 1481 1482 1461 1469 1478 1479 1481 1482 1484 1485
1464 1462 1459 1457 1454 1452 1449 1448 1449 1445 1439 1449 1448 1444 1442 1442 1447 1454 1455 1457 1462 1463 1466 1468 1471 1470 1466 1471 1469 1477 1481 1486 1486 1486 1490 1473 1473 1461 1466 1466 1475 1480 1482 1483 1484
1463 1460 1458 1457 1456 1450 1448 1449 1443 1435 1456 1450 1446 1446 1444 1446 1451 1453 1455 1460 1461 1464 1471 1473 1479 1477 1476 1474 1477 1476 1479 1488 1493 1494 1479 1480 1485 1454 1458 1461 1471 1477 1480 1482 1483
1460 1457 1456 1455 1452 1449 1448 1447 1438 1451 1444 1449 1445 1448 1450 1453 1455 1454 1455 1455 1458 1457 1466 1466 1479 1483 1481 1479 1478 1477 1473 1472 1476 1470 1466 1489 1479 1459 1464 1469 1473 1476 1480 1481 1481
1459 1457 1455 1453 1450 1448 1449 1446 1453 1455 1447 1444 1442 1443 1446 1446 1452 1449 1445 1452 1456 1454 1458 1462 1474 1484 1483 1482 1481 1486 1485 1477 1474 1474 1471 1465 1463 1468 1468 1471 1474 1477 1479 1478 1479
1458 1457 1455 1452 1449 1448 1447 1454 1455 1453 1449 1447 1442 1442 1440 1444 1444 1443 1442 1450 1451 1453 1455 1454 1471 1477 1482 1483 1488 1486 1480 1483 1480 1480 1465 1456 1452 1447 1464 1468 1472 1474 1476 1476 1477
1457 1458 1453 1451 1450 1449 1452 1458 1452 1453 1452 1448 1445 1444 1441 1445 1443 1442 1446 1453 1452 1454 1453 1451 1455 1477 1476 1478 1479 1489 1487 1481 1474 1473 1464 1448 1447 1442 1456 1464 1469 1472 1474 1475 1476
1458 1457 1452 1450 1452 1447 1449 1451 1454 1452 1453 1451 1450 1448 1443 1446 1445 1444 1445 1447 1453 1453 1452 1457 1460 1471 1471 1474 1474 1471 1467 1467 1467 1475 1472 1471 1458 1454 1457 1463 1468 1470 1471 1472 1473
1461 1458 1453 1451 1447 1447 1450 1450 1451 1451 1450 1449 1449 1450 1450 1447 1449 1448 1450 1455 1456 1455 1454 1455 1464 1475 1476 1475 1474 1473 1469 1469 1470 1475 1476 1465 1457 1457 1462 1465 1465 1468 1468 1469 1470
1463 1459 1455 1453 1450 1445 1445 1446 1447 1451 1450 1450 1449 1449 1449 1448 1448 1451 1452 1457 1458 1457 1458 1458 1458 1462 1454 1460 1458 1469 1464 1467 1473 1474 1463 1460 1454 1458 1460 1459 1462 1465 1466 1468 1469
1465 1465 1466 1454 1451 1451 1450 1448 1445 1445 1449 1449 1448 1447 1445 1446 1447 1449 1451 1457 1460 1460 1460 1459 1467 1469 1460 1461 1464 1465 1464 1465 1471 1468 1465 1453 1454 1454 1456 1459 1461 1464 1465 1466 1467
1469 1470 1468 1462 1460 1455 1452 1447 1447 1446 1448 1446 1448 1445 1446 1445 1443 1446 1449 1451 1453 1459 1459 1461 1469 1469 1469 1463 1465 1466 1463 1461 1465 1465 1463 1460 1458 1455 1456 1457 1460 1462 1464 1465 1465
1470 1472 1472 1463 1459 1455 1449 1451 1450 1452 1450 1450 1448 1446 1447 1447 1449 1449 1448 1448 1450 1454 1457 1460 1468 1470 1461 1462 1464 1461 1450 1452 1454 1453 1456 1458 1452 1453 1455 1457 1460 1462 1462 1462 1463
Wind_Speed
26 25 26 25 24 22 21 20 20 21 18 17 16 15 11 14 25 28 18 19 22 8 11 18 18 17 12 16 20 14 10 14 23 21 16 13 10 16 8 13 8 8 4 5 6
26 26 25 25 22 22 20 19 17 17 14 15 17 13 13 15 12 24 27 17 18 14 11 21 22 17 16 18 13 15 15 24 20 18 11 14 14 14 8 13 13 10 4 3 6
27 28 26 23 22 20 19 16 11 10 11 8 11 12 13 10 15 30 27 15 23 20 13 17 20 20 18 16 21 16 21 20 21 6 6 15 15 12 13 11 14 15 10 5 6
24 22 26 22 20 17 16 13 9 8 6 8 9 9 12 4 6 12 18 20 22 21 18 17 26 22 19 15 23 13 26 22 21 4 4 13 14 14 14 7 8 6 6 4 6
29 25 24 22 19 14 13 10 7 5 5 6 7 7 6 10 17 9 18 20 23 24 25 20 30 24 17 20 18 17 10 20 9 5 10 15 16 14 15 10 8 8 5 4 5
30 26 21 19 15 12 8 8 6 4 5 5 6 8 6 13 8 13 13 13 26 26 27 26 29 23 15 10 19 14 14 13 13 8 7 10 14 12 13 12 12 12 11 9 10
31 27 22 15 11 9 6 6 6 5 5 4 6 7 12 16 6 14 22 6 14 29 29 25 20 24 10 6 14 10 16 8 15 13 7 9 14 18 18 11 14 15 13 13 14
30 24 19 9 6 7 6 5 5 5 5 5 6 5 10 10 18 14 15 13 16 28 25 22 18 24 8 5 13 10 13 13 11 12 10 10 14 18 23 20 23 20 19 19 19
31 20 12 3 2 3 4 5 5 6 6 5 6 8 10 4 15 17 14 12 16 25 22 19 16 23 13 14 11 13 12 17 12 17 11 14 10 14 11 8 13 16 16 17 18
30 18 9 5 7 6 6 2 1 1 4 5 6 6 13 10 13 17 17 14 26 26 19 12 11 13 12 13 16 18 20 17 16 10 15 19 15 11 8 11 16 16 16 17 17
25 19 13 10 8 5 5 3 1 2 6 3 5 7 6 10 13 18 10 16 27 22 13 12 8 19 26 23 17 13 17 14 13 8 8 14 16 15 14 17 19 19 18 18 18
21 17 14 9 8 4 5 3 4 0 1 2 5 10 14 8 5 11 6 2 27 14 17 6 8 18 17 19 16 9 14 13 4 9 7 11 13 11 13 20 21 20 19 17 15
22 18 12 10 12 11 9 7 4 2 2 3 5 10 2 8 6 9 7 3 19 20 18 14 9 13 12 14 13 12 14 14 6 9 9 5 13 17 12 8 7 7 11 11 10
20 19 18 5 5 4 4 8 4 3 1 3 3 1 7 9 5 11 13 4 2 19 17 8 7 15 15 17 15 12 4 7 6 9 5 8 3 8 11 7 6 8 7 7 7
15 14 12 11 2 2 2 1 2 2 3 4 2 1 3 7 11 9 10 7 2 7 4 4 13 16 17 17 16 6 11 8 5 6 3 8 4 8 11 10 10 9 8 6 5
16 12 10 6 7 6 5 5 4 2 8 5 6 5 5 10 5 6 5 11 5 7 9 4 3 3 2 4 5 12 12 8 4 2 4 10 8 9 10 13 13 11 8 5 3
15 11 10 7 5 10 9 2 2 5 3 5 4 6 7 5 3 3 4 5 3 5 2 3 4 3 3 9 10 9 14 5 5 4 4 3 5 4 7 10 13 12 7 4 1
15 8 9 9 10 7 3 3 7 5 6 4 4 4 3 2 4 3 2 3 5 6 3 4 2 1 4 3 7 13 14 2 7 6 7 4 7 1 10 10 7 8 2 2 2
14 6 7 11 11 3 3 5 2 3 2 3 3 2 3 5 6 5 6 5 4 4 2 4 4 4 1 2 2 4 6 3 2 1 2 7 5 7 8 10 7 10 3 2 3
16 6 7 13 7 3 2 4 1 1 2 3 1 3 3 5 4 5 1 2 4 2 3 4 6 6 9 6 5 2 1 2 2 4 5 6 5 4 13 12 13 8 3 3 4
10 5 5 9 4 1 4 2 3 1 2 4 2 1 1 4 3 3 2 3 1 3 1 4 4 5 7 7 9 4 2 4 4 2 3 2 3 7 15 15 12 5 2 3 4
5 3 8 7 1 0 4 5 3 1 2 2 0 2 1 3 4 2 3 3 3 3 3 3 4 5 2 2 4 5 5 10 3 4 1 3 2 3 14 11 5 2 2 3 4
9 5 7 2 1 3 3 5 2 4 2 2 2 1 2 4 2 3 3 2 2 1 3 5 4 4 3 4 4 6 10 7 1 3 5 3 4 7 9 7 6 3 1 2 3
5 3 3 2 2 2 4 4 3 2 2 1 1 3 5 6 0 6 6 2 2 2 3 0 2 2 1 3 4 5 11 12 9 4 5 8 6 11 9 4 3 0 2 4 2
4 2 3 3 2 3 3 1 3 2 2 2 3 6 5 3 5 4 7 6 3 4 2 2 2 1 3 1 3 4 7 13 13 12 7 3 11 13 9 2 2 2 3 3 3
5 5 8 7 7 6 2 2 2 0 2 1 4 3 4 3 4 6 8 7 6 8 5 2 2 1 2 4 6 9 11 11 16 17 18 15 14 10 14 10 2 4 3 3 4
8 5 4 3 4 5 1 2 1 4 2 3 3 3 4 2 4 3 3 5 4 7 10 6 5 2 1 2 3 10 18 19 15 11 17 15 12 8 4 2 4 6 2 1 2
Wind_Direction
315 310 307 307 302 303 300 294 289 275 264 253 233 258 264 260 240 242 246 213 208 239 204 194 194 194 198 211 212 221 235 230 235 231 233 230 220 223 238 252 205 206 299 89 127
318 310 310 310 300 297 300 297 288 279 260 250 242 239 255 264 281 247 236 211 203 204 187 189 188 184 196 207 201 212 223 225 230 238 226 215 219 221 212 219 220 210 189 119 166
323 321 316 309 303 296 294 294 287 285 266 254 235 234 263 279 291 247 242 224 198 193 184 198 187 183 204 202 206 218 231 231 242 292 265 226 213 227 208 217 221 215 194 197 186
321 315 310 312 304 295 288 289 285 268 268 276 258 259 263 265 248 195 208 207 202 195 201 188 190 190 203 202 208 237 224 245 239 217 201 240 218 203 221 219 211 184 156 204 211
323 315 307 305 309 292 283 282 278 252 254 246 224 224 249 233 247 221 195 197 194 187 196 192 193 194 203 202 211 219 223 224 255 175 220 234 228 224 220 198 164 178 227 216 222
327 322 313 299 301 291 276 280 258 253 268 256 225 213 225 251 253 240 185 167 192 188 196 194 198 192 214 216 209 211 219 219 215 188 199 218 224 215 232 220 219 225 236 238 238
329 321 321 304 281 280 259 261 254 248 265 251 254 255 247 233 238 223 224 174 193 191 194 194 195 194 198 205 197 245 205 212 210 205 208 220 242 226 237 222 229 234 235 235 241
334 332 328 306 274 275 247 253 248 252 265 225 231 242 261 255 240 245 236 235 198 185 189 189 196 200 222 172 190 187 207 206 203 209 221 191 245 223 227 239 242 243 244 245 245
347 340 354 356 308 298 222 241 251 265 227 212 215 214 250 257 220 215 215 216 194 175 178 185 206 194 197 188 185 206 201 207 198 202 206 204 249 220 187 220 237 238 239 243 246
9 15 16 68 64 64 96 69 351 270 166 190 231 222 240 232 183 192 190 199 163 165 162 186 190 191 203 197 201 199 217 201 201 187 221 222 239 251 242 243 246 249 247 245 247
21 27 53 64 61 64 56 71 175 143 185 310 334 235 31 157 172 177 166 171 161 159 176 176 179 193 196 204 217 242 202 226 214 140 204 228 242 236 226 244 249 255 254 252 253
16 32 31 28 27 41 56 73 53 1 261 315 311 269 274 219 138 162 152 122 163 178 173 164 206 201 201 202 211 252 193 196 183 165 212 238 236 244 240 244 248 255 259 259 258
22 14 13 19 65 60 78 91 117 67 327 81 264 285 186 144 127 171 99 211 193 175 182 186 190 205 181 204 192 209 201 191 232 187 228 280 261 239 226 248 242 249 248 247 238
12 21 23 28 55 75 97 116 124 18 262 41 245 292 162 183 107 109 112 179 24 176 181 177 204 208 178 190 200 195 188 153 176 191 220 195 267 169 166 178 189 166 159 153 151
348 11 16 25 75 120 142 128 328 321 71 7 314 351 45 96 139 51 112 111 55 120 118 159 183 194 186 191 204 118 154 167 180 228 307 192 250 132 173 184 174 161 150 149 146
326 324 347 321 303 310 313 309 322 241 40 21 338 86 80 61 65 125 61 88 63 95 61 53 24 230 189 60 204 130 127 136 138 220 239 223 226 178 183 187 172 155 150 142 139
325 308 313 318 298 307 325 249 259 44 155 360 40 64 60 66 98 122 134 139 123 120 107 43 10 51 11 112 144 163 174 160 193 198 238 127 203 318 134 151 170 170 153 145 142
327 303 317 308 309 327 309 239 53 325 75 171 122 83 74 112 47 75 179 113 176 111 123 139 130 11 323 126 178 184 204 270 205 194 176 157 221 138 154 150 143 172 172 248 267
331 292 316 329 323 359 259 49 54 287 31 128 126 117 97 106 132 225 96 88 153 113 96 143 93 96 235 82 177 169 211 7 314 68 222 179 188 157 165 181 190 185 252 263 286
337 291 268 332 330 81 51 89 175 224 287 293 26 297 163 120 172 189 111 97 143 69 263 102 110 133 126 90 0 244 314 189 207 212 218 172 209 166 178 176 168 181 243 260 288
345 292 282 350 11 226 92 105 112 137 297 320 14 133 42 166 236 169 62 113 87 111 26 127 108 137 154 202 166 158 200 227 287 300 294 214 138 88 159 158 162 181 229 274 297
9 286 324 10 311 134 124 148 170 148 176 153 133 17 206 175 177 155 158 51 134 166 134 34 98 150 154 101 315 313 228 210 236 187 248 313 85 207 156 144 152 239 268 294 301
329 281 305 350 322 120 130 144 204 190 178 181 153 240 199 168 163 144 125 49 141 188 167 161 140 129 173 192 187 221 212 224 206 347 213 265 117 162 148 163 188 212 301 315 306
336 320 317 310 6 288 180 167 180 184 229 232 143 190 172 174 226 167 147 130 147 38 33 147 171 293 264 82 120 193 211 204 199 214 217 233 112 174 172 199 164 129 350 330 320
14 40 332 318 80 334 295 326 204 204 214 233 197 242 210 170 170 157 142 142 165 167 157 263 179 108 285 68 152 219 204 208 211 220 227 244 226 175 200 299 260 288 335 322 320
28 1 335 283 295 275 165 203 272 355 287 173 262 195 218 254 243 182 182 183 179 181 193 185 148 100 279 226 244 258 244 222 219 225 243 252 262 267 261 271 266 308 308 293 311
24 359 330 338 297 271 58 33 71 330 167 303 264 175 213 339 349 11 182 187 167 177 188 180 146 171 247 201 267 268 237 223 221 218 222 229 248 209 155 258 269 287 252 240 311